Location: Newark
(33.6439°N, 114.9881°W)
Time: 18:04:46
(UTC+00:00)

A-11 Canister half - Pass Details

Date: 23 August 2019
Orbit: 1527 x 1682 km, 47.3° (Epoch: 13 October)

Event Time Altitude Azimuth Distance (km) Brightness Sun altitude
Rises 02:51:34 0° 303° (WNW) 4,935 13.6 -7.5°
Reaches altitude 10° 02:54:53 10° 298° (WNW) 3,940 12.8 -8.1°
Maximum altitude 03:04:25 49° 228° (SW) 2,048 9.9 -10.0°
Drops below altitude 10° 03:13:45 10° 157° (SSE) 3,843 10.7 -11.8°
Enters shadow 03:16:07 - 153° (SSE) 4,549 11.0 -12.2°
Sets 03:16:57 0° 152° (SSE) 4,805 - -12.4°
